This demonstration page uses our WeatherBlox Daily Observations layout. Learn more.

Left ArrowRight Arrow

39.51506, -84.39828

Hourly Observations for June 5, 2019

Temp ( °F °C ) Dew Point ( °F °C ) Humidity (%) Winds ( mph kmh ) Pressure ( in mb ) Visibility ( mi km ) Precip ( " mm )
12:10 am 00:10 Clear 62 16.9 60 15.4 91 91 N N/A 29.91 1013 10 16 N/A
12:35 am 00:35 Partly Cloudy 62 16.7 60 15.4 92 92 N N/A 29.92 1013 10 16 N/A
12:55 am 00:55 Clear 62 16.7 59 15 90 90 N N/A 29.92 1013 10 16 N/A
1:15 am 01:15 Clear 62 16.5 60 15.3 93 93 N N/A 29.91 1013 10 16 N/A
1:35 am 01:35 Mostly Cloudy 62 16.9 60 15.7 93 93 N N/A 29.91 1013 10 16 N/A
1:55 am 01:55 Cloudy 63 17.3 61 16.2 93 93 N N/A 29.90 1013 10 16 N/A
2:15 am 02:15 Cloudy 64 17.6 61 16.3 92 92 N N/A 29.90 1013 10 16 N/A
2:35 am 02:35 Mostly Cloudy 64 17.7 61 16.1 90 90 NW 3 6 29.90 1013 10 16 N/A
2:55 am 02:55 Mostly Cloudy 63 17.4 61 16 92 92 N N/A 29.89 1012 10 16 N/A
3:15 am 03:15 Mostly Cloudy 64 17.5 61 16.3 93 93 N N/A 29.88 1012 10 16 N/A
3:35 am 03:35 Mostly Cloudy 64 17.6 61 15.9 90 90 N N/A 29.87 1012 10 16 N/A
3:55 am 03:55 Cloudy with Heavy Rain 64 17.7 61 16.3 92 92 WSW 7 11 29.88 1012 5 8 0.03 0.76
4:15 am 04:15 Cloudy with Thunderstorms 66 18.7 62 16.9 89 89 SW 9 15 29.87 1011 10 16 0.09 2.29
4:35 am 04:35 Cloudy with Thunderstorms 65 18.2 63 17.1 93 93 SE 6 9 29.87 1011 10 16 0.18 4.57
4:55 am 04:55 Cloudy with Nearby Thunderstorms 65 18.6 63 17.4 93 93 N N/A 29.86 1011 10 16 0.18 4.57
5:15 am 05:15 Mostly Cloudy 65 18.5 64 17.9 96 96 N N/A 29.85 1011 10 16 N/A
5:35 am 05:35 Partly Cloudy 64 17.9 64 17.5 98 98 N N/A 29.86 1011 7 11 N/A
5:55 am 05:55 Clear with Mist and Fog 64 17.5 63 17.2 98 98 N N/A 29.85 1011 3 5 N/A
6:15 am 06:15 Partly Cloudy with Nearby Thunderstorms 63 17.2 63 17 99 99 SW 3 6 29.86 1011 3 4 N/A
6:35 am 06:35 Mostly Cloudy with Mist and Fog 64 17.7 64 17.5 99 99 N N/A 29.86 1011 4 6 N/A
6:55 am 06:55 Mostly Cloudy with Mist and Fog 65 18.3 64 17.8 97 97 N N/A 29.85 1011 5 8 N/A
7:15 am 07:15 Cloudy with Light Rain 65 18.6 64 17.9 96 96 N N/A 29.86 1011 7 11 N/A
7:35 am 07:35 Mostly Cloudy with Light Rain 66 19.1 64 17.9 93 93 SSW 5 7 29.85 1011 10 16 N/A
7:55 am 07:55 Partly Cloudy 67 19.4 65 18.3 93 93 SW 5 7 29.86 1011 10 16 N/A
8:15 am 08:15 Partly Cloudy 68 19.8 65 18.1 90 90 SSW 5 7 29.85 1011 10 16 N/A
8:35 am 08:35 Partly Cloudy 68 20.2 65 18.5 90 90 SSW 6 9 29.84 1011 10 16 N/A
8:55 am 08:55 Cloudy 70 21 66 18.9 88 88 SW 6 9 29.84 1011 10 16 N/A
9:15 am 09:15 Cloudy 70 21.2 65 18.5 85 85 SSW 9 15 29.82 1010 10 16 N/A
9:35 am 09:35 Cloudy 70 21.3 66 18.7 85 85 SW 8 13 29.82 1010 10 16 N/A
9:55 am 09:55 Cloudy 71 21.7 66 18.8 84 84 WSW 9 15 29.82 1010 10 16 N/A
10:15 am 10:15 Mostly Cloudy 72 22.3 67 19.4 84 84 WSW 9 15 29.81 1009 10 16 N/A
10:35 am 10:35 Mostly Cloudy 73 22.7 67 19.5 82 82 SW 14 22 29.80 1009 10 16 N/A
10:55 am 10:55 Cloudy 73 22.8 67 19.4 81 81 WSW 14 22 29.80 1009 10 16 N/A
11:15 am 11:15 Partly Cloudy 76 24.2 69 20.5 80 80 SW 10 17 29.80 1009 10 16 N/A
11:35 am 11:35 Mostly Cloudy 75 23.7 68 19.8 79 79 WSW 14 22 29.80 1009 10 16 N/A
11:55 am 11:55 Partly Cloudy 76 24.2 68 19.8 77 77 SW 15 24 29.80 1009 10 16 N/A
12:15 pm 12:15 Mostly Cloudy 76 24.7 68 20.2 76 76 SW 14 22 29.79 1009 10 16 N/A
12:35 pm 12:35 Cloudy 76 24.7 68 20.1 76 76 WSW 16 26 29.80 1009 10 16 N/A
12:55 pm 12:55 Cloudy 75 24.1 68 20 78 78 WSW 13 20 29.80 1009 10 16 N/A
1:15 pm 13:15 Cloudy 76 24.3 69 20.3 78 78 SW 13 20 29.79 1009 10 16 N/A
1:35 pm 13:35 Cloudy 76 24.6 69 20.6 78 78 SW 13 20 29.79 1009 10 16 N/A
1:55 pm 13:55 Cloudy 76 24.6 69 20.7 79 79 SW 12 19 29.78 1009 10 16 N/A
2:15 pm 14:15 Cloudy 75 24 69 20.4 80 80 WSW 10 17 29.80 1009 10 16 N/A
2:35 pm 14:35 Cloudy 76 24.4 69 20.8 80 80 SW 10 17 29.78 1009 10 16 N/A
2:55 pm 14:55 Cloudy 77 25.1 70 21.1 79 79 SW 12 19 29.77 1008 10 16 N/A
3:15 pm 15:15 Cloudy 77 24.9 71 21.4 81 81 SW 13 20 29.78 1009 10 16 N/A
3:35 pm 15:35 Cloudy 77 25.2 70 21.2 79 79 SW 14 22 29.77 1008 10 16 N/A
3:55 pm 15:55 Mostly Cloudy 78 25.8 70 21.3 76 76 WSW 15 24 29.77 1008 10 16 N/A
4:15 pm 16:15 Sunny 80 26.9 72 22 75 75 WSW 9 15 29.76 1008 10 16 N/A
4:35 pm 16:35 Partly Cloudy 80 26.8 71 21.8 74 74 WSW 12 19 29.75 1007 10 16 N/A
4:55 pm 16:55 Partly Cloudy 80 26.6 71 21.7 75 75 WSW 12 19 29.75 1007 10 16 N/A
5:15 pm 17:15 Sunny 79 26.1 71 21.7 77 77 WSW 8 13 29.74 1007 10 16 N/A
5:35 pm 17:35 Sunny 78 25.5 71 21.6 79 79 WSW 7 11 29.74 1007 10 16 N/A
5:55 pm 17:55 Sunny 77 25.1 71 21.6 81 81 N N/A 29.72 1007 10 16 N/A
6:15 pm 18:15 Sunny 75 24.1 71 21.9 88 88 N N/A 29.73 1007 10 16 N/A
6:35 pm 18:35 Mostly Cloudy 76 24.4 72 22.2 88 88 N N/A 29.70 1006 10 16 N/A
6:55 pm 18:55 Sunny with Light Rain 74 23.3 72 22.4 95 95 N N/A 29.73 1007 7 11 N/A
7:15 pm 19:15 Mostly Cloudy with Light Rain 75 23.7 72 22.4 92 92 SW 7 11 29.74 1007 10 16 N/A
7:35 pm 19:35 Partly Cloudy with Light Rain 74 23.6 72 22.2 92 92 WSW 7 11 29.74 1007 10 16 0.01 0.25
7:55 pm 19:55 Mostly Cloudy with Light Rain 71 21.8 68 20 90 90 SW 14 22 29.72 1006 10 16 0.01 0.25
8:15 pm 20:15 Partly Cloudy 70 21.2 67 19.2 88 88 WSW 9 15 29.71 1006 10 16 N/A
8:35 pm 20:35 Sunny 70 21 66 19.1 89 89 N N/A 29.73 1007 10 16 N/A
8:55 pm 20:55 Sunny 69 20.6 66 19 91 91 SW 6 9 29.74 1007 10 16 N/A
9:15 pm 21:15 Clear 69 20.3 66 19 92 92 WSW 6 9 29.76 1008 10 16 N/A
9:35 pm 21:35 Clear 68 20.2 66 18.9 92 92 SW 6 9 29.77 1008 10 16 N/A
9:55 pm 21:55 Clear 69 20.4 66 18.8 91 91 SW 7 11 29.78 1009 10 16 N/A
10:15 pm 22:15 Clear 68 20 66 18.7 92 92 WSW 3 6 29.80 1009 10 16 N/A
10:35 pm 22:35 Clear 68 19.8 66 18.7 93 93 SW 6 9 29.80 1009 10 16 N/A
10:55 pm 22:55 Partly Cloudy 67 19.7 66 18.7 94 94 WSW 6 9 29.81 1009 10 16 N/A
11:15 pm 23:15 Clear 67 19.5 65 18.6 95 95 WSW 5 7 29.80 1009 10 16 N/A
11:35 pm 23:35 Clear 67 19.2 65 18.5 96 96 SSW 5 7 29.80 1009 10 16 N/A
11:55 pm 23:55 Mostly Cloudy 67 19.3 65 18.5 95 95 N N/A 29.80 1009 10 16 N/A

Powered by AerisWeather